Time,TemperatureF,DewpointF,PressureIn,WindDirection,WindDirectionDegrees,WindSpeedMPH,WindSpeedGustMPH,Humidity,HourlyPrecipIn,Conditions,Clouds,dailyrainin,SoftwareType,DateUTC
2013-07-26 00:02:00,81.6,78.0,29.99,SSE,148,6.9,6.9,89,0.00,CLR,,0.00,WeatherDisplay:10.37,2013-07-26 05:02:00,
2013-07-26 00:07:00,81.5,77.9,29.99,SSE,150,10.4,10.4,89,0.00,CLR,,0.00,WeatherDisplay:10.37,2013-07-26 05:07:00,
2013-07-26 00:12:00,81.4,77.5,29.99,SSE,158,15.0,15.0,88,0.00,CLR,,0.00,WeatherDisplay:10.37,2013-07-26 05:12:00,
2013-07-26 00:17:00,81.5,77.6,30.00,SSE,152,10.4,10.4,88,0.00,CLR,,0.00,WeatherDisplay:10.37,2013-07-26 05:17:00,
2013-07-26 00:22:00,81.4,77.5,30.00,SSE,148,10.4,10.4,88,0.00,CLR,,0.00,WeatherDisplay:10.37,2013-07-26 05:22:00,
2013-07-26 00:27:00,81.4,77.5,30.00,SE,139,5.8,5.8,88,0.00,CLR,,0.00,WeatherDisplay:10.37,2013-07-26 05:27:00,
2013-07-26 00:32:00,81.4,77.5,29.99,SE,134,13.8,13.8,88,0.00,CLR,,0.00,WeatherDisplay:10.37,2013-07-26 05:32:00,
2013-07-26 00:37:00,81.4,77.5,30.00,SSW,197,11.5,11.5,88,0.00,CLR,,0.00,WeatherDisplay:10.37,2013-07-26 05:37:00,
2013-07-26 00:42:00,81.4,77.5,29.99,SSE,149,11.5,11.5,88,0.00,CLR,,0.00,WeatherDisplay:10.37,2013-07-26 05:42:00,
2013-07-26 00:47:00,81.4,77.5,29.99,SE,129,4.6,4.6,88,0.00,CLR,,0.00,WeatherDisplay:10.37,2013-07-26 05:47:00,
2013-07-26 00:52:00,81.3,77.7,29.99,SSE,147,11.5,11.5,89,0.00,CLR,,0.00,WeatherDisplay:10.37,2013-07-26 05:52:00,
2013-07-26 00:57:00,81.3,77.7,29.99,South,183,5.8,5.8,89,0.00,CLR,,0.00,WeatherDisplay:10.37,2013-07-26 05:57:00,
2013-07-26 01:02:00,81.3,77.7,29.99,South,176,10.4,10.4,89,0.00,CLR,,0.00,WeatherDisplay:10.37,2013-07-26 06:02:00,
2013-07-26 01:07:00,81.3,77.7,29.99,SSE,157,10.4,10.4,89,0.00,CLR,,0.00,WeatherDisplay:10.37,2013-07-26 06:07:00,
2013-07-26 01:12:00,81.3,77.7,29.99,SSE,165,9.2,9.2,89,0.00,CLR,,0.00,WeatherDisplay:10.37,2013-07-26 06:12:00,
2013-07-26 01:17:00,81.2,78.0,29.99,SSE,156,10.4,10.4,90,0.00,CLR,,0.00,WeatherDisplay:10.37,2013-07-26 06:17:00,
2013-07-26 01:22:00,81.2,78.0,29.99,SE,133,6.3,6.3,90,0.00,CLR,,0.00,WeatherDisplay:10.37,2013-07-26 06:22:00,
2013-07-26 01:27:00,81.1,77.9,29.99,ESE,120,18.4,18.4,90,0.00,CLR,,0.00,WeatherDisplay:10.37,2013-07-26 06:27:00,
2013-07-26 01:32:00,81.2,78.0,29.99,SE,124,11.5,11.5,90,0.00,CLR,,0.00,WeatherDisplay:10.37,2013-07-26 06:32:00,
2013-07-26 01:37:00,81.1,77.9,29.99,SSW,195,5.8,5.8,90,0.00,CLR,,0.00,WeatherDisplay:10.37,2013-07-26 06:37:00,
2013-07-26 01:42:00,81.1,77.9,29.99,SE,132,11.5,11.5,90,0.00,CLR,,0.00,WeatherDisplay:10.37,2013-07-26 06:42:00,
2013-07-26 01:47:00,81.1,77.9,29.99,SE,144,6.9,6.9,90,0.00,CLR,,0.00,WeatherDisplay:10.37,2013-07-26 06:47:00,
2013-07-26 01:52:00,81.1,77.9,29.99,South,188,5.8,5.8,90,0.00,CLR,,0.00,WeatherDisplay:10.37,2013-07-26 06:52:00,
2013-07-26 01:57:00,81.0,77.8,29.99,SSW,196,6.9,6.9,90,0.00,CLR,,0.00,WeatherDisplay:10.37,2013-07-26 06:57:00,
2013-07-26 02:02:00,81.0,77.8,29.99,South,169,12.7,12.7,90,0.00,CLR,,0.00,WeatherDisplay:10.37,2013-07-26 07:02:00,
2013-07-26 02:07:00,81.1,77.9,29.99,South,174,7.4,7.4,90,0.00,CLR,,0.00,WeatherDisplay:10.37,2013-07-26 07:07:00,
2013-07-26 02:12:00,81.1,77.9,29.99,SSW,206,9.2,9.2,90,0.00,CLR,,0.00,WeatherDisplay:10.37,2013-07-26 07:12:00,
2013-07-26 02:17:00,81.1,77.9,29.99,South,173,6.9,6.9,90,0.00,CLR,,0.00,WeatherDisplay:10.37,2013-07-26 07:17:00,
2013-07-26 02:22:00,81.0,77.8,29.99,SSE,160,6.9,6.9,90,0.00,CLR,,0.00,WeatherDisplay:10.37,2013-07-26 07:22:00,
2013-07-26 02:27:00,81.0,77.8,29.99,SSW,212,5.8,5.8,90,0.00,CLR,,0.00,WeatherDisplay:10.37,2013-07-26 07:27:00,
2013-07-26 02:32:00,80.9,77.7,29.99,SSW,193,10.4,10.4,90,0.00,CLR,,0.00,WeatherDisplay:10.37,2013-07-26 07:32:00,
2013-07-26 02:37:00,80.9,77.7,29.99,SSE,150,6.9,6.9,90,0.00,CLR,,0.00,WeatherDisplay:10.37,2013-07-26 07:37:00,
2013-07-26 02:42:00,80.9,77.7,29.99,South,190,13.8,13.8,90,0.00,CLR,,0.00,WeatherDisplay:10.37,2013-07-26 07:42:00,
2013-07-26 02:47:00,80.9,77.7,29.99,SSE,162,10.4,10.4,90,0.00,CLR,,0.00,WeatherDisplay:10.37,2013-07-26 07:47:00,
2013-07-26 02:52:00,80.9,77.7,29.99,SSE,157,4.6,4.6,90,0.00,CLR,,0.00,WeatherDisplay:10.37,2013-07-26 07:52:00,
2013-07-26 02:57:00,80.9,77.7,29.99,SSE,164,6.9,6.9,90,0.00,CLR,,0.00,WeatherDisplay:10.37,2013-07-26 07:57:00,
2013-07-26 03:02:00,80.9,77.7,29.99,SE,143,9.2,9.2,90,0.00,CLR,,0.00,WeatherDisplay:10.37,2013-07-26 08:02:00,
2013-07-26 03:07:00,80.8,77.3,29.99,SE,134,16.1,16.1,89,0.00,CLR,,0.00,WeatherDisplay:10.37,2013-07-26 08:07:00,
2013-07-26 03:12:00,80.9,77.7,29.99,South,172,5.8,5.8,90,0.00,CLR,,0.00,WeatherDisplay:10.37,2013-07-26 08:12:00,
2013-07-26 03:17:00,80.8,77.6,29.98,SSE,163,10.4,10.4,90,0.00,CLR,,0.00,WeatherDisplay:10.37,2013-07-26 08:17:00,
2013-07-26 03:22:00,80.8,77.3,29.98,SSE,164,15.0,15.0,89,0.00,CLR,,0.00,WeatherDisplay:10.37,2013-07-26 08:22:00,
2013-07-26 03:27:00,80.8,77.3,29.98,SSW,210,10.4,10.4,89,0.00,CLR,,0.00,WeatherDisplay:10.37,2013-07-26 08:27:00,
2013-07-26 03:32:00,80.9,77.4,29.98,SW,234,5.8,5.8,89,0.00,CLR,,0.00,WeatherDisplay:10.37,2013-07-26 08:32:00,
2013-07-26 03:37:00,80.8,77.3,29.98,South,183,13.8,13.8,89,0.00,CLR,,0.00,WeatherDisplay:10.37,2013-07-26 08:37:00,
2013-07-26 03:42:00,80.7,77.5,29.98,SSW,197,6.3,6.3,90,0.00,CLR,,0.00,WeatherDisplay:10.37,2013-07-26 08:42:00,
2013-07-26 03:47:00,80.7,77.2,29.98,SSW,194,9.2,9.2,89,0.00,CLR,,0.00,WeatherDisplay:10.37,2013-07-26 08:47:00,
2013-07-26 03:52:00,80.6,77.1,29.97,SSW,195,9.4,9.4,89,0.00,CLR,,0.00,WeatherDisplay:10.37,2013-07-26 08:52:00,
2013-07-26 03:57:00,80.6,77.1,29.98,South,191,5.8,5.8,89,0.00,CLR,,0.00,WeatherDisplay:10.37,2013-07-26 08:57:00,
2013-07-26 04:02:00,80.5,77.0,29.98,South,176,9.2,9.2,89,0.00,CLR,,0.00,WeatherDisplay:10.37,2013-07-26 09:02:00,
2013-07-26 04:07:00,80.6,77.1,29.98,SSW,200,6.9,6.9,89,0.00,CLR,,0.00,WeatherDisplay:10.37,2013-07-26 09:07:00,
2013-07-26 04:12:00,80.6,77.1,29.97,SSE,165,11.5,11.5,89,0.00,CLR,,0.00,WeatherDisplay:10.37,2013-07-26 09:12:00,
2013-07-26 04:17:00,80.5,77.0,29.97,SSW,196,12.7,12.7,89,0.00,CLR,,0.00,WeatherDisplay:10.37,2013-07-26 09:17:00,
2013-07-26 04:22:00,80.5,77.0,29.97,SSW,207,9.2,9.2,89,0.00,CLR,,0.00,WeatherDisplay:10.37,2013-07-26 09:22:00,
2013-07-26 04:27:00,80.4,76.9,29.97,SSW,211,9.2,9.2,89,0.00,CLR,,0.00,WeatherDisplay:10.37,2013-07-26 09:27:00,
2013-07-26 04:32:00,80.5,77.0,29.97,South,174,5.8,5.8,89,0.00,CLR,,0.00,WeatherDisplay:10.37,2013-07-26 09:32:00,
2013-07-26 04:37:00,80.5,77.0,29.97,South,191,6.9,6.9,89,0.00,CLR,,0.00,WeatherDisplay:10.37,2013-07-26 09:37:00,
2013-07-26 04:42:00,80.5,77.0,29.97,SSW,193,10.4,10.4,89,0.00,CLR,,0.00,WeatherDisplay:10.37,2013-07-26 09:42:00,
2013-07-26 04:47:00,80.4,76.9,29.97,SSW,194,11.5,11.5,89,0.00,CLR,,0.00,WeatherDisplay:10.37,2013-07-26 09:47:00,
2013-07-26 04:52:00,80.4,76.9,29.97,SSW,205,6.9,6.9,89,0.00,CLR,,0.00,WeatherDisplay:10.37,2013-07-26 09:52:00,
2013-07-26 04:57:00,80.4,76.9,29.97,South,184,6.9,6.9,89,0.00,CLR,,0.00,WeatherDisplay:10.37,2013-07-26 09:57:00,
2013-07-26 05:02:00,80.3,76.8,29.97,South,172,5.8,5.8,89,0.00,CLR,,0.00,WeatherDisplay:10.37,2013-07-26 10:02:00,
2013-07-26 05:07:00,80.4,76.9,29.97,South,180,13.8,13.8,89,0.00,CLR,,0.00,WeatherDisplay:10.37,2013-07-26 10:07:00,
2013-07-26 05:12:00,80.5,77.3,29.97,SSW,206,10.4,10.4,90,0.00,CLR,,0.00,WeatherDisplay:10.37,2013-07-26 10:12:00,
2013-07-26 05:17:00,80.5,77.3,29.97,South,179,5.8,5.8,90,0.00,CLR,,0.00,WeatherDisplay:10.37,2013-07-26 10:17:00,
2013-07-26 05:22:00,80.5,77.3,29.97,SSW,200,11.5,11.5,90,0.00,CLR,,0.00,WeatherDisplay:10.37,2013-07-26 10:22:00,
2013-07-26 05:27:00,80.5,77.3,29.97,South,173,8.1,8.1,90,0.00,CLR,,0.00,WeatherDisplay:10.37,2013-07-26 10:27:00,
2013-07-26 05:32:00,80.5,77.3,29.97,South,185,13.8,13.8,90,0.00,CLR,,0.00,WeatherDisplay:10.37,2013-07-26 10:32:00,
2013-07-26 05:37:00,80.5,77.3,29.97,South,189,6.9,6.9,90,0.00,CLR,,0.00,WeatherDisplay:10.37,2013-07-26 10:37:00,
2013-07-26 05:42:00,80.6,77.4,29.97,South,191,5.8,5.8,90,0.00,CLR,,0.00,WeatherDisplay:10.37,2013-07-26 10:42:00,
2013-07-26 05:47:00,80.6,77.4,29.98,South,177,9.2,9.2,90,0.00,CLR,,0.00,WeatherDisplay:10.37,2013-07-26 10:47:00,
2013-07-26 05:52:00,80.5,77.3,29.98,SE,145,5.8,5.8,90,0.00,CLR,,0.00,WeatherDisplay:10.37,2013-07-26 10:52:00,
2013-07-26 05:57:00,80.4,77.2,29.98,SSW,193,10.4,10.4,90,0.00,CLR,,0.00,WeatherDisplay:10.37,2013-07-26 10:57:00,
2013-07-26 06:02:00,80.4,77.5,29.98,South,191,5.8,5.8,91,0.00,CLR,,0.00,WeatherDisplay:10.37,2013-07-26 11:02:00,
2013-07-26 06:07:00,80.3,77.4,29.98,SSW,193,6.9,6.9,91,0.00,CLR,,0.00,WeatherDisplay:10.37,2013-07-26 11:07:00,
2013-07-26 06:12:00,80.4,77.5,29.98,South,188,6.9,6.9,91,0.00,CLR,,0.00,WeatherDisplay:10.37,2013-07-26 11:12:00,
2013-07-26 06:17:00,80.4,77.5,29.98,SE,143,5.8,5.8,91,0.00,CLR,,0.00,WeatherDisplay:10.37,2013-07-26 11:17:00,
2013-07-26 06:22:00,80.3,77.4,29.98,South,176,4.6,4.6,91,0.00,CLR,,0.00,WeatherDisplay:10.37,2013-07-26 11:22:00,
2013-07-26 06:27:00,80.2,77.3,29.98,South,173,10.4,10.4,91,0.00,CLR,,0.00,WeatherDisplay:10.37,2013-07-26 11:27:00,
2013-07-26 06:32:00,80.2,77.3,29.97,South,183,10.4,10.4,91,0.00,CLR,,0.00,WeatherDisplay:10.37,2013-07-26 11:32:00,
2013-07-26 06:37:00,80.2,77.3,29.97,SSE,163,3.5,3.5,91,0.00,CLR,,0.00,WeatherDisplay:10.37,2013-07-26 11:37:00,
2013-07-26 06:42:00,80.2,77.3,29.98,SE,139,5.8,5.8,91,0.00,CLR,,0.00,WeatherDisplay:10.37,2013-07-26 11:42:00,
2013-07-26 06:47:00,80.1,77.2,29.98,SSW,192,5.8,5.8,91,0.00,CLR,,0.00,WeatherDisplay:10.37,2013-07-26 11:47:00,
2013-07-26 06:52:00,80.1,77.6,29.98,SSW,199,3.5,3.5,92,0.00,CLR,,0.00,WeatherDisplay:10.37,2013-07-26 11:52:00,
2013-07-26 06:57:00,80.1,77.6,29.98,SSE,160,5.8,5.8,92,0.00,CLR,,0.00,WeatherDisplay:10.37,2013-07-26 11:57:00,
2013-07-26 07:02:00,80.1,77.6,29.97,SSE,159,10.4,10.4,92,0.00,CLR,,0.00,WeatherDisplay:10.37,2013-07-26 12:02:00,
2013-07-26 07:07:00,80.2,77.7,29.97,SSE,167,5.8,5.8,92,0.00,CLR,,0.00,WeatherDisplay:10.37,2013-07-26 12:07:00,
2013-07-26 07:12:00,80.2,77.7,29.97,SSE,168,5.8,5.8,92,0.00,CLR,,0.00,WeatherDisplay:10.37,2013-07-26 12:12:00,
2013-07-26 07:17:00,80.3,77.8,29.97,South,181,6.9,6.9,92,0.00,CLR,,0.00,WeatherDisplay:10.37,2013-07-26 12:17:00,
2013-07-26 07:22:00,80.4,77.9,29.97,SSW,197,4.6,4.6,92,0.00,CLR,,0.00,WeatherDisplay:10.37,2013-07-26 12:22:00,
2013-07-26 07:27:00,80.5,78.0,29.97,South,173,9.2,9.2,92,0.00,CLR,,0.00,WeatherDisplay:10.37,2013-07-26 12:27:00,
2013-07-26 07:32:00,80.6,77.7,29.97,South,189,5.8,5.8,91,0.00,CLR,,0.00,WeatherDisplay:10.37,2013-07-26 12:32:00,
2013-07-26 07:37:00,80.7,77.8,29.97,South,187,11.5,11.5,91,0.00,CLR,,0.00,WeatherDisplay:10.37,2013-07-26 12:37:00,
2013-07-26 07:42:00,81.0,78.1,29.97,South,189,11.5,11.5,91,0.00,CLR,,0.00,WeatherDisplay:10.37,2013-07-26 12:42:00,
2013-07-26 07:47:00,81.2,78.0,29.98,SSE,150,5.8,5.8,90,0.00,CLR,,0.00,WeatherDisplay:10.37,2013-07-26 12:47:00,
2013-07-26 07:52:00,81.3,78.1,29.98,South,190,5.8,5.8,90,0.00,CLR,,0.00,WeatherDisplay:10.37,2013-07-26 12:52:00,
2013-07-26 07:57:00,81.4,78.2,29.98,SSW,208,10.4,10.4,90,0.00,CLR,,0.00,WeatherDisplay:10.37,2013-07-26 12:57:00,
2013-07-26 08:02:00,81.7,78.5,29.99,SSE,162,5.8,5.8,90,0.00,CLR,,0.00,WeatherDisplay:10.37,2013-07-26 13:02:00,
2013-07-26 08:07:00,82.1,78.9,29.99,SSE,148,6.9,6.9,90,0.00,CLR,,0.00,WeatherDisplay:10.37,2013-07-26 13:07:00,
2013-07-26 08:12:00,82.2,78.3,29.98,South,191,9.2,9.2,88,0.00,CLR,,0.00,WeatherDisplay:10.37,2013-07-26 13:12:00,
2013-07-26 08:17:00,82.3,78.0,29.99,South,183,9.2,9.2,87,0.00,CLR,,0.00,WeatherDisplay:10.37,2013-07-26 13:17:00,
2013-07-26 08:22:00,82.3,78.4,29.99,SSE,161,6.9,6.9,88,0.00,CLR,,0.00,WeatherDisplay:10.37,2013-07-26 13:22:00,
2013-07-26 08:27:00,82.5,78.6,29.99,SSW,204,9.2,9.2,88,0.00,CLR,,0.00,WeatherDisplay:10.37,2013-07-26 13:27:00,
2013-07-26 08:32:00,82.6,78.3,29.99,South,172,5.8,5.8,87,0.00,CLR,,0.00,WeatherDisplay:10.37,2013-07-26 13:32:00,
2013-07-26 08:37:00,82.6,78.3,29.99,South,173,6.9,6.9,87,0.00,CLR,,0.00,WeatherDisplay:10.37,2013-07-26 13:37:00,
2013-07-26 08:42:00,82.8,78.5,29.99,SSE,153,5.8,5.8,87,0.00,CLR,,0.00,WeatherDisplay:10.37,2013-07-26 13:42:00,
2013-07-26 08:47:00,82.9,78.3,29.99,South,176,10.4,10.4,86,0.00,CLR,,0.00,WeatherDisplay:10.37,2013-07-26 13:47:00,
2013-07-26 08:52:00,83.0,78.4,29.99,South,186,17.3,17.3,86,0.00,CLR,,0.00,WeatherDisplay:10.37,2013-07-26 13:52:00,
2013-07-26 08:57:00,83.1,78.1,29.99,WSW,239,6.9,6.9,85,0.00,CLR,,0.00,WeatherDisplay:10.37,2013-07-26 13:57:00,
2013-07-26 09:02:00,83.3,78.7,29.99,SSE,151,6.9,6.9,86,0.00,CLR,,0.00,WeatherDisplay:10.37,2013-07-26 14:02:00,
2013-07-26 09:07:00,83.8,78.8,29.99,SSW,198,6.9,6.9,85,0.00,CLR,,0.00,WeatherDisplay:10.37,2013-07-26 14:07:00,
2013-07-26 09:12:00,84.2,79.2,30.00,SSW,193,12.7,12.7,85,0.00,CLR,,0.00,WeatherDisplay:10.37,2013-07-26 14:12:00,
2013-07-26 09:17:00,84.4,79.0,30.00,South,169,11.5,11.5,84,0.00,CLR,,0.00,WeatherDisplay:10.37,2013-07-26 14:17:00,
2013-07-26 09:22:00,84.5,78.8,30.00,SSW,202,10.4,10.4,83,0.00,CLR,,0.00,WeatherDisplay:10.37,2013-07-26 14:22:00,
2013-07-26 09:27:00,84.6,78.9,30.00,SW,219,11.5,11.5,83,0.00,CLR,,0.00,WeatherDisplay:10.37,2013-07-26 14:27:00,
2013-07-26 09:32:00,84.9,79.2,30.00,SSW,210,10.4,10.4,83,0.00,CLR,,0.00,WeatherDisplay:10.37,2013-07-26 14:32:00,
2013-07-26 09:37:00,85.5,79.4,30.00,South,170,9.2,9.2,82,0.00,CLR,,0.00,WeatherDisplay:10.37,2013-07-26 14:37:00,
2013-07-26 09:42:00,85.5,79.0,30.00,SSE,155,11.5,11.5,81,0.00,CLR,,0.00,WeatherDisplay:10.37,2013-07-26 14:42:00,
2013-07-26 09:47:00,84.9,78.8,30.00,SSE,150,6.9,8.3,82,0.00,CLR,,0.00,WeatherDisplay:10.37,2013-07-26 14:47:00,
2013-07-26 09:52:00,85.1,79.4,30.00,SE,129,11.5,11.5,83,0.00,CLR,,0.00,WeatherDisplay:10.37,2013-07-26 14:52:00,
2013-07-26 09:57:00,85.0,78.9,30.01,SE,139,9.2,9.2,82,0.00,CLR,,0.00,WeatherDisplay:10.37,2013-07-26 14:57:00,
2013-07-26 10:02:00,84.9,79.2,30.01,South,184,5.8,5.8,83,0.00,CLR,,0.00,WeatherDisplay:10.37,2013-07-26 15:02:00,
2013-07-26 10:07:00,85.2,79.1,30.00,SSE,158,12.7,12.7,82,0.00,CLR,,0.00,WeatherDisplay:10.37,2013-07-26 15:07:00,
2013-07-26 10:12:00,85.6,79.5,30.00,SE,131,9.4,9.4,82,0.00,CLR,,0.00,WeatherDisplay:10.37,2013-07-26 15:12:00,
2013-07-26 10:17:00,85.8,79.3,30.00,SSW,204,18.4,18.4,81,0.00,CLR,,0.00,WeatherDisplay:10.37,2013-07-26 15:17:00,
2013-07-26 10:22:00,86.0,79.1,30.01,SE,145,10.4,10.4,80,0.00,CLR,,0.00,WeatherDisplay:10.37,2013-07-26 15:22:00,
2013-07-26 10:27:00,85.9,79.0,30.00,SE,129,8.1,8.1,80,0.00,CLR,,0.00,WeatherDisplay:10.37,2013-07-26 15:27:00,
2013-07-26 10:32:00,85.3,78.8,30.00,SE,146,9.2,9.2,81,0.00,CLR,,0.00,WeatherDisplay:10.37,2013-07-26 15:32:00,
2013-07-26 10:37:00,85.5,79.0,30.00,SE,143,16.1,16.1,81,0.00,CLR,,0.00,WeatherDisplay:10.37,2013-07-26 15:37:00,
2013-07-26 10:42:00,85.9,79.4,30.00,SE,142,12.7,12.7,81,0.00,CLR,,0.00,WeatherDisplay:10.37,2013-07-26 15:42:00,
2013-07-26 10:47:00,86.3,79.4,29.99,SE,134,13.8,13.8,80,0.00,CLR,,0.00,WeatherDisplay:10.37,2013-07-26 15:47:00,
2013-07-26 10:52:00,86.4,79.1,29.99,ESE,120,15.0,15.0,79,0.00,CLR,,0.00,WeatherDisplay:10.37,2013-07-26 15:52:00,
2013-07-26 10:57:00,86.6,79.7,30.00,SSE,157,10.4,10.4,80,0.00,CLR,,0.00,WeatherDisplay:10.37,2013-07-26 15:57:00,
2013-07-26 11:02:00,86.7,79.8,30.00,SSW,195,8.1,8.1,80,0.00,CLR,,0.00,WeatherDisplay:10.37,2013-07-26 16:02:00,
2013-07-26 11:07:00,86.5,79.2,30.00,SSW,213,15.0,15.0,79,0.00,CLR,,0.00,WeatherDisplay:10.37,2013-07-26 16:07:00,
2013-07-26 11:12:00,86.4,79.5,30.00,ESE,109,11.5,11.5,80,0.00,CLR,,0.00,WeatherDisplay:10.37,2013-07-26 16:12:00,
2013-07-26 11:17:00,86.2,79.3,30.00,South,191,18.4,18.4,80,0.00,CLR,,0.00,WeatherDisplay:10.37,2013-07-26 16:17:00,
2013-07-26 11:23:00,86.7,80.2,30.00,ESE,118,13.8,13.8,81,0.00,CLR,,0.00,WeatherDisplay:10.37,2013-07-26 16:23:00,
2013-07-26 11:28:00,86.8,79.9,30.00,South,180,12.7,12.7,80,0.00,CLR,,0.00,WeatherDisplay:10.37,2013-07-26 16:28:00,
2013-07-26 11:32:00,87.1,80.2,30.00,SSE,150,11.5,11.5,80,0.00,CLR,,0.00,WeatherDisplay:10.37,2013-07-26 16:32:00,
2013-07-26 11:38:00,87.2,79.9,30.00,SSW,193,9.2,9.2,79,0.00,CLR,,0.00,WeatherDisplay:10.37,2013-07-26 16:38:00,
2013-07-26 11:43:00,87.8,80.1,30.00,SSE,156,18.4,18.4,78,0.00,CLR,,0.00,WeatherDisplay:10.37,2013-07-26 16:43:00,
2013-07-26 11:48:00,87.6,79.9,30.00,SSW,213,9.2,9.2,78,0.00,CLR,,0.00,WeatherDisplay:10.37,2013-07-26 16:48:00,
2013-07-26 11:53:00,87.5,79.8,29.99,South,182,15.0,15.0,78,0.00,CLR,,0.00,WeatherDisplay:10.37,2013-07-26 16:53:00,
2013-07-26 11:58:00,87.4,79.7,29.99,South,173,13.8,13.8,78,0.00,CLR,,0.00,WeatherDisplay:10.37,2013-07-26 16:58:00,
2013-07-26 12:03:00,87.4,80.1,29.99,SSW,200,11.5,11.5,79,0.00,CLR,,0.00,WeatherDisplay:10.37,2013-07-26 17:03:00,
2013-07-26 12:08:00,87.1,79.8,29.99,SSE,159,16.1,16.1,79,0.00,CLR,,0.00,WeatherDisplay:10.37,2013-07-26 17:08:00,
2013-07-26 12:13:00,87.2,79.9,29.99,South,170,18.4,18.4,79,0.00,CLR,,0.00,WeatherDisplay:10.37,2013-07-26 17:13:00,
2013-07-26 12:18:00,87.3,80.0,29.99,ESE,104,10.4,10.4,79,0.00,CLR,,0.00,WeatherDisplay:10.37,2013-07-26 17:18:00,
2013-07-26 12:23:00,88.0,80.7,29.99,ESE,120,15.0,15.0,79,0.00,CLR,,0.00,WeatherDisplay:10.37,2013-07-26 17:23:00,
2013-07-26 12:28:00,87.6,79.9,29.99,South,187,11.5,11.5,78,0.00,CLR,,0.00,WeatherDisplay:10.37,2013-07-26 17:28:00,
2013-07-26 12:33:00,87.4,79.7,29.99,South,176,13.8,13.8,78,0.00,CLR,,0.00,WeatherDisplay:10.37,2013-07-26 17:33:00,
2013-07-26 12:38:00,87.9,80.2,29.99,ESE,122,18.4,18.4,78,0.00,CLR,,0.00,WeatherDisplay:10.37,2013-07-26 17:38:00,
2013-07-26 12:43:00,87.9,80.2,29.99,South,178,15.0,15.0,78,0.00,CLR,,0.00,WeatherDisplay:10.37,2013-07-26 17:43:00,
2013-07-26 12:48:00,87.6,80.3,29.99,SSE,160,11.5,11.5,79,0.00,CLR,,0.00,WeatherDisplay:10.37,2013-07-26 17:48:00,
2013-07-26 12:53:00,88.2,80.5,29.99,SSW,207,9.2,9.2,78,0.00,CLR,,0.00,WeatherDisplay:10.37,2013-07-26 17:53:00,
2013-07-26 12:58:00,88.5,80.4,29.99,SE,130,15.0,15.0,77,0.00,CLR,,0.00,WeatherDisplay:10.37,2013-07-26 17:58:00,
2013-07-26 13:03:00,87.8,80.1,29.99,SSE,168,15.0,15.0,78,0.00,CLR,,0.00,WeatherDisplay:10.37,2013-07-26 18:03:00,
2013-07-26 13:08:00,86.9,80.0,29.98,SSE,159,17.3,17.3,80,0.00,CLR,,0.00,WeatherDisplay:10.37,2013-07-26 18:08:00,
2013-07-26 13:13:00,86.8,79.9,29.98,SSE,167,9.2,9.2,80,0.00,CLR,,0.00,WeatherDisplay:10.37,2013-07-26 18:13:00,
2013-07-26 13:18:00,87.0,80.5,29.97,SE,138,13.8,13.8,81,0.00,CLR,,0.00,WeatherDisplay:10.37,2013-07-26 18:18:00,
2013-07-26 13:23:00,87.4,80.5,29.97,ESE,120,15.0,15.0,80,0.00,CLR,,0.00,WeatherDisplay:10.37,2013-07-26 18:23:00,
2013-07-26 13:28:00,87.2,80.3,29.97,SE,143,12.7,12.7,80,0.00,CLR,,0.00,WeatherDisplay:10.37,2013-07-26 18:28:00,
2013-07-26 13:33:00,87.2,80.3,29.97,ESE,116,13.8,13.8,80,0.00,CLR,,0.00,WeatherDisplay:10.37,2013-07-26 18:33:00,
2013-07-26 13:38:00,87.8,80.9,29.97,SE,141,15.0,15.0,80,0.00,CLR,,0.00,WeatherDisplay:10.37,2013-07-26 18:38:00,
2013-07-26 13:43:00,87.9,80.2,29.97,SE,139,18.4,18.4,78,0.00,CLR,,0.00,WeatherDisplay:10.37,2013-07-26 18:43:00,
2013-07-26 13:48:00,88.0,80.7,29.97,SE,140,10.4,10.4,79,0.00,CLR,,0.00,WeatherDisplay:10.37,2013-07-26 18:48:00,
2013-07-26 13:53:00,88.2,80.9,29.97,SSW,200,11.5,11.5,79,0.00,CLR,,0.00,WeatherDisplay:10.37,2013-07-26 18:53:00,
2013-07-26 13:58:00,88.4,80.7,29.97,SSE,151,11.5,11.5,78,0.00,CLR,,0.00,WeatherDisplay:10.37,2013-07-26 18:58:00,
2013-07-26 14:03:00,87.7,80.4,29.97,SE,125,15.0,15.0,79,0.00,CLR,,0.00,WeatherDisplay:10.37,2013-07-26 19:03:00,
2013-07-26 14:08:00,87.5,80.2,29.97,SE,146,13.8,13.8,79,0.00,CLR,,0.00,WeatherDisplay:10.37,2013-07-26 19:08:00,
2013-07-26 14:13:00,87.6,80.3,29.96,South,169,11.5,11.5,79,0.00,CLR,,0.00,WeatherDisplay:10.37,2013-07-26 19:13:00,
2013-07-26 14:18:00,87.2,80.7,29.96,SE,133,13.8,13.8,81,0.00,CLR,,0.00,WeatherDisplay:10.37,2013-07-26 19:18:00,
2013-07-26 14:23:00,86.6,80.1,29.96,ESE,118,15.0,15.0,81,0.00,CLR,,0.00,WeatherDisplay:10.37,2013-07-26 19:23:00,
2013-07-26 14:28:00,86.1,80.0,29.96,SE,143,18.4,18.4,82,0.00,CLR,,0.00,WeatherDisplay:10.37,2013-07-26 19:28:00,
2013-07-26 14:33:00,85.9,80.1,29.95,SE,136,12.7,12.7,83,0.00,CLR,,0.00,WeatherDisplay:10.37,2013-07-26 19:33:00,
2013-07-26 14:38:00,86.7,80.5,29.95,ESE,119,12.7,12.7,82,0.00,CLR,,0.00,WeatherDisplay:10.37,2013-07-26 19:38:00,
2013-07-26 14:43:00,87.5,80.9,29.95,ESE,117,16.1,16.1,81,0.00,CLR,,0.00,WeatherDisplay:10.37,2013-07-26 19:43:00,
2013-07-26 14:48:00,87.4,80.8,29.95,SE,131,16.1,16.1,81,0.00,CLR,,0.00,WeatherDisplay:10.37,2013-07-26 19:48:00,
2013-07-26 14:53:00,87.6,80.7,29.95,ESE,110,13.8,13.8,80,0.00,CLR,,0.00,WeatherDisplay:10.37,2013-07-26 19:53:00,
2013-07-26 14:58:00,86.9,80.4,29.94,ESE,123,19.6,19.6,81,0.00,CLR,,0.00,WeatherDisplay:10.37,2013-07-26 19:58:00,
2013-07-26 15:03:00,86.9,80.4,29.95,SSE,153,18.4,18.4,81,0.00,CLR,,0.00,WeatherDisplay:10.37,2013-07-26 20:03:00,
2013-07-26 15:08:00,86.8,80.3,29.94,SE,136,19.6,19.6,81,0.00,CLR,,0.00,WeatherDisplay:10.37,2013-07-26 20:08:00,
2013-07-26 15:13:00,86.5,80.3,29.94,SE,138,11.5,11.5,82,0.00,CLR,,0.00,WeatherDisplay:10.37,2013-07-26 20:13:00,
2013-07-26 15:18:00,86.1,80.0,29.94,SSE,158,19.6,19.6,82,0.00,CLR,,0.00,WeatherDisplay:10.37,2013-07-26 20:18:00,
2013-07-26 15:23:00,86.0,80.2,29.94,SE,129,9.2,9.2,83,0.00,CLR,,0.00,WeatherDisplay:10.37,2013-07-26 20:23:00,
2013-07-26 15:28:00,86.1,80.3,29.94,SE,142,15.0,15.0,83,0.00,CLR,,0.00,WeatherDisplay:10.37,2013-07-26 20:28:00,
2013-07-26 15:33:00,85.8,80.0,29.94,SE,139,17.3,17.3,83,0.00,CLR,,0.00,WeatherDisplay:10.37,2013-07-26 20:33:00,
2013-07-26 15:38:00,85.9,80.1,29.94,SSE,153,13.8,13.8,83,0.00,CLR,,0.00,WeatherDisplay:10.37,2013-07-26 20:38:00,
2013-07-26 15:43:00,86.1,80.0,29.94,ESE,111,15.0,15.0,82,0.00,CLR,,0.00,WeatherDisplay:10.37,2013-07-26 20:43:00,
2013-07-26 15:48:00,86.2,80.1,29.94,SSE,149,13.8,13.8,82,0.00,CLR,,0.00,WeatherDisplay:10.37,2013-07-26 20:48:00,
2013-07-26 15:53:00,86.3,80.2,29.94,SE,128,18.4,18.4,82,0.00,CLR,,0.00,WeatherDisplay:10.37,2013-07-26 20:53:00,
2013-07-26 15:58:00,86.0,79.9,29.94,SSW,200,16.1,16.1,82,0.00,CLR,,0.00,WeatherDisplay:10.37,2013-07-26 20:58:00,
2013-07-26 16:03:00,85.8,79.7,29.94,SE,143,18.4,18.4,82,0.00,CLR,,0.00,WeatherDisplay:10.37,2013-07-26 21:03:00,
2013-07-26 16:08:00,86.0,79.9,29.94,SE,125,10.4,10.4,82,0.00,CLR,,0.00,WeatherDisplay:10.37,2013-07-26 21:08:00,
2013-07-26 16:13:00,85.8,79.7,29.94,SSE,148,19.6,19.6,82,0.00,CLR,,0.00,WeatherDisplay:10.37,2013-07-26 21:13:00,
2013-07-26 16:18:00,85.9,79.8,29.94,SSE,148,17.3,17.3,82,0.00,CLR,,0.00,WeatherDisplay:10.37,2013-07-26 21:18:00,
2013-07-26 16:23:00,85.8,79.7,29.93,ESE,120,18.4,18.4,82,0.00,CLR,,0.00,WeatherDisplay:10.37,2013-07-26 21:23:00,
2013-07-26 16:28:00,85.5,79.7,29.93,SSE,156,16.1,16.1,83,0.00,CLR,,0.00,WeatherDisplay:10.37,2013-07-26 21:28:00,
2013-07-26 16:33:00,85.5,79.4,29.93,SE,146,10.4,10.4,82,0.00,CLR,,0.00,WeatherDisplay:10.37,2013-07-26 21:33:00,
2013-07-26 16:38:00,85.6,79.8,29.93,SE,131,13.8,13.8,83,0.00,CLR,,0.00,WeatherDisplay:10.37,2013-07-26 21:38:00,
2013-07-26 16:43:00,85.4,79.6,29.93,SSE,150,10.4,10.4,83,0.00,CLR,,0.00,WeatherDisplay:10.37,2013-07-26 21:43:00,
2013-07-26 16:48:00,85.3,79.5,29.93,East,100,15.0,15.0,83,0.00,CLR,,0.00,WeatherDisplay:10.37,2013-07-26 21:48:00,
2013-07-26 16:53:00,85.2,79.4,29.93,SE,146,13.8,13.8,83,0.00,CLR,,0.00,WeatherDisplay:10.37,2013-07-26 21:53:00,
2013-07-26 16:58:00,85.5,79.7,29.92,SSE,148,12.7,12.7,83,0.00,CLR,,0.00,WeatherDisplay:10.37,2013-07-26 21:58:00,
2013-07-26 17:03:00,85.3,79.9,29.93,SE,136,10.4,10.4,84,0.00,CLR,,0.00,WeatherDisplay:10.37,2013-07-26 22:03:00,
2013-07-26 17:08:00,85.1,79.4,29.92,SE,134,17.3,17.3,83,0.00,CLR,,0.00,WeatherDisplay:10.37,2013-07-26 22:08:00,
2013-07-26 17:13:00,84.8,79.1,29.92,SE,127,15.0,15.0,83,0.00,CLR,,0.00,WeatherDisplay:10.37,2013-07-26 22:13:00,
2013-07-26 17:18:00,84.6,79.2,29.92,ESE,104,18.4,18.4,84,0.00,CLR,,0.00,WeatherDisplay:10.37,2013-07-26 22:18:00,
2013-07-26 17:23:00,84.5,78.8,29.92,SE,146,19.6,19.6,83,0.00,CLR,,0.00,WeatherDisplay:10.37,2013-07-26 22:23:00,
2013-07-26 17:28:00,84.6,79.2,29.92,SSE,156,16.1,16.1,84,0.00,CLR,,0.00,WeatherDisplay:10.37,2013-07-26 22:28:00,
2013-07-26 17:33:00,84.6,79.2,29.92,SSE,157,18.4,18.4,84,0.00,CLR,,0.00,WeatherDisplay:10.37,2013-07-26 22:33:00,
2013-07-26 17:38:00,84.7,79.0,29.91,ESE,118,19.6,19.6,83,0.00,CLR,,0.00,WeatherDisplay:10.37,2013-07-26 22:38:00,
2013-07-26 17:43:00,84.6,79.2,29.91,SE,145,16.1,16.1,84,0.00,CLR,,0.00,WeatherDisplay:10.37,2013-07-26 22:43:00,
2013-07-26 17:48:00,84.7,79.3,29.91,SE,135,21.9,21.9,84,0.00,CLR,,0.00,WeatherDisplay:10.37,2013-07-26 22:48:00,
2013-07-26 17:53:00,84.6,79.2,29.91,ESE,122,15.0,15.0,84,0.00,CLR,,0.00,WeatherDisplay:10.37,2013-07-26 22:53:00,
2013-07-26 17:58:00,85.0,79.3,29.91,SSE,154,19.6,19.6,83,0.00,CLR,,0.00,WeatherDisplay:10.37,2013-07-26 22:58:00,
2013-07-26 18:03:00,85.2,79.4,29.91,SE,136,15.0,15.0,83,0.00,CLR,,0.00,WeatherDisplay:10.37,2013-07-26 23:03:00,
2013-07-26 18:08:00,85.1,79.4,29.91,SSE,150,15.0,15.0,83,0.00,CLR,,0.00,WeatherDisplay:10.37,2013-07-26 23:08:00,
2013-07-26 18:13:00,84.9,79.2,29.91,SE,126,13.8,13.8,83,0.00,CLR,,0.00,WeatherDisplay:10.37,2013-07-26 23:13:00,
2013-07-26 18:18:00,84.7,79.3,29.91,SE,142,13.8,13.8,84,0.00,CLR,,0.00,WeatherDisplay:10.37,2013-07-26 23:18:00,
2013-07-26 18:23:00,84.5,78.8,29.91,SE,127,18.4,18.4,83,0.00,CLR,,0.00,WeatherDisplay:10.37,2013-07-26 23:23:00,
2013-07-26 18:28:00,84.3,79.3,29.91,ESE,121,12.7,12.7,85,0.00,CLR,,0.00,WeatherDisplay:10.37,2013-07-26 23:28:00,
2013-07-26 18:33:00,84.3,78.9,29.91,SSE,151,17.3,17.3,84,0.00,CLR,,0.00,WeatherDisplay:10.37,2013-07-26 23:33:00,
2013-07-26 18:38:00,84.2,79.2,29.91,SSE,153,18.4,18.4,85,0.00,CLR,,0.00,WeatherDisplay:10.37,2013-07-26 23:38:00,
2013-07-26 18:43:00,84.3,79.3,29.90,SE,133,10.4,11.7,85,0.00,CLR,,0.00,WeatherDisplay:10.37,2013-07-26 23:43:00,
2013-07-26 18:48:00,84.4,79.4,29.90,SE,136,12.7,12.7,85,0.00,CLR,,0.00,WeatherDisplay:10.37,2013-07-26 23:48:00,
2013-07-26 18:53:00,84.3,79.3,29.90,SE,132,15.0,15.0,85,0.00,CLR,,0.00,WeatherDisplay:10.37,2013-07-26 23:53:00,
2013-07-26 18:58:00,84.1,79.1,29.90,ESE,119,13.8,13.8,85,0.00,CLR,,0.00,WeatherDisplay:10.37,2013-07-26 23:58:00,
2013-07-26 19:03:00,84.0,79.0,29.90,SE,132,17.3,17.3,85,0.00,CLR,,0.00,WeatherDisplay:10.37,2013-07-27 00:03:00,
2013-07-26 19:08:00,83.8,78.8,29.90,ESE,120,16.1,16.1,85,0.00,CLR,,0.00,WeatherDisplay:10.37,2013-07-27 00:08:00,
2013-07-26 19:13:00,83.7,79.1,29.90,South,179,13.8,13.8,86,0.00,CLR,,0.00,WeatherDisplay:10.37,2013-07-27 00:13:00,
2013-07-26 19:18:00,83.6,79.0,29.90,SSE,158,15.0,15.0,86,0.00,CLR,,0.00,WeatherDisplay:10.37,2013-07-27 00:18:00,
2013-07-26 19:23:00,83.5,78.9,29.90,South,174,17.3,17.3,86,0.00,CLR,,0.00,WeatherDisplay:10.37,2013-07-27 00:23:00,
2013-07-26 19:28:00,83.4,78.8,29.90,SSE,165,21.9,21.9,86,0.00,CLR,,0.00,WeatherDisplay:10.37,2013-07-27 00:28:00,
2013-07-26 19:33:00,83.3,78.7,29.89,SSE,153,16.1,16.1,86,0.00,CLR,,0.00,WeatherDisplay:10.37,2013-07-27 00:33:00,
2013-07-26 19:38:00,83.0,78.4,29.89,SSE,151,18.4,18.4,86,0.00,CLR,,0.00,WeatherDisplay:10.37,2013-07-27 00:38:00,
2013-07-26 19:43:00,82.9,78.3,29.89,SE,133,17.3,17.3,86,0.00,CLR,,0.00,WeatherDisplay:10.37,2013-07-27 00:43:00,
2013-07-26 19:48:00,82.8,78.2,29.89,South,181,16.1,16.1,86,0.00,CLR,,0.00,WeatherDisplay:10.37,2013-07-27 00:48:00,
2013-07-26 19:53:00,82.7,78.4,29.89,SSE,150,16.1,16.1,87,0.00,CLR,,0.00,WeatherDisplay:10.37,2013-07-27 00:53:00,
2013-07-26 19:58:00,82.7,78.4,29.89,SSE,158,12.7,12.7,87,0.00,CLR,,0.00,WeatherDisplay:10.37,2013-07-27 00:58:00,
2013-07-26 20:03:00,82.6,78.3,29.89,SSE,148,10.4,10.4,87,0.00,CLR,,0.00,WeatherDisplay:10.37,2013-07-27 01:03:00,
2013-07-26 20:08:00,82.5,78.2,29.89,SSE,150,19.6,19.6,87,0.00,CLR,,0.00,WeatherDisplay:10.37,2013-07-27 01:08:00,
2013-07-26 20:13:00,82.5,77.9,29.89,ESE,111,19.6,19.6,86,0.00,CLR,,0.00,WeatherDisplay:10.37,2013-07-27 01:13:00,
2013-07-26 20:18:00,82.4,77.8,29.89,South,172,21.9,21.9,86,0.00,CLR,,0.00,WeatherDisplay:10.37,2013-07-27 01:18:00,
2013-07-26 20:23:00,82.4,78.1,29.89,SE,142,9.2,9.2,87,0.00,CLR,,0.00,WeatherDisplay:10.37,2013-07-27 01:23:00,
2013-07-26 20:28:00,82.4,78.1,29.90,South,169,18.4,18.4,87,0.00,CLR,,0.00,WeatherDisplay:10.37,2013-07-27 01:28:00,
2013-07-26 20:33:00,82.3,78.0,29.90,SSE,165,16.1,16.1,87,0.00,CLR,,0.00,WeatherDisplay:10.37,2013-07-27 01:33:00,
2013-07-26 20:38:00,82.2,77.9,29.90,SSE,165,15.0,15.0,87,0.00,CLR,,0.00,WeatherDisplay:10.37,2013-07-27 01:38:00,
2013-07-26 20:43:00,82.2,78.3,29.90,SE,144,11.5,11.5,88,0.00,CLR,,0.00,WeatherDisplay:10.37,2013-07-27 01:43:00,
2013-07-26 20:48:00,82.1,78.2,29.90,SSE,152,15.0,15.0,88,0.00,CLR,,0.00,WeatherDisplay:10.37,2013-07-27 01:48:00,
2013-07-26 20:53:00,82.1,78.2,29.90,SSE,155,10.4,10.4,88,0.00,CLR,,0.00,WeatherDisplay:10.37,2013-07-27 01:53:00,
2013-07-26 20:58:00,82.1,78.2,29.91,SSE,153,10.4,10.4,88,0.00,CLR,,0.00,WeatherDisplay:10.37,2013-07-27 01:58:00,
2013-07-26 21:03:00,82.0,77.7,29.91,ESE,122,12.7,12.7,87,0.00,CLR,,0.00,WeatherDisplay:10.37,2013-07-27 02:03:00,
2013-07-26 21:08:00,82.0,78.1,29.91,SE,131,11.5,11.5,88,0.00,CLR,,0.00,WeatherDisplay:10.37,2013-07-27 02:08:00,
2013-07-26 21:13:00,82.0,78.1,29.91,South,169,13.8,13.8,88,0.00,CLR,,0.00,WeatherDisplay:10.37,2013-07-27 02:13:00,
2013-07-26 21:18:00,82.0,78.1,29.91,SSE,150,16.1,16.1,88,0.00,CLR,,0.00,WeatherDisplay:10.37,2013-07-27 02:18:00,
2013-07-26 21:23:00,82.0,78.1,29.91,SSE,148,17.3,17.3,88,0.00,CLR,,0.00,WeatherDisplay:10.37,2013-07-27 02:23:00,
2013-07-26 21:28:00,82.0,77.7,29.91,SSE,162,17.3,17.3,87,0.00,CLR,,0.00,WeatherDisplay:10.37,2013-07-27 02:28:00,
2013-07-26 21:33:00,82.0,78.1,29.91,SE,130,11.5,11.5,88,0.00,CLR,,0.00,WeatherDisplay:10.37,2013-07-27 02:33:00,
2013-07-26 21:38:00,82.0,78.1,29.91,South,169,18.4,18.4,88,0.00,CLR,,0.00,WeatherDisplay:10.37,2013-07-27 02:38:00,
2013-07-26 21:43:00,82.0,78.1,29.92,South,184,16.1,16.1,88,0.00,CLR,,0.00,WeatherDisplay:10.37,2013-07-27 02:43:00,
2013-07-26 21:48:00,82.0,78.1,29.92,SSW,198,10.4,10.9,88,0.00,CLR,,0.00,WeatherDisplay:10.37,2013-07-27 02:48:00,
2013-07-26 21:53:00,82.0,78.1,29.92,SSE,149,12.7,12.7,88,0.00,CLR,,0.00,WeatherDisplay:10.37,2013-07-27 02:53:00,
2013-07-26 21:58:00,82.0,78.1,29.92,SSE,155,17.3,17.3,88,0.00,CLR,,0.00,WeatherDisplay:10.37,2013-07-27 02:58:00,
2013-07-26 22:03:00,82.0,78.1,29.92,SE,124,12.7,12.7,88,0.00,CLR,,0.00,WeatherDisplay:10.37,2013-07-27 03:03:00,
2013-07-26 22:08:00,82.0,77.7,29.92,SSE,157,18.4,18.4,87,0.00,CLR,,0.00,WeatherDisplay:10.37,2013-07-27 03:08:00,
2013-07-26 22:13:00,81.9,78.0,29.92,SSE,147,17.3,17.3,88,0.00,CLR,,0.00,WeatherDisplay:10.37,2013-07-27 03:13:00,
2013-07-26 22:18:00,81.9,78.0,29.92,SE,142,16.1,16.1,88,0.00,CLR,,0.00,WeatherDisplay:10.37,2013-07-27 03:18:00,
2013-07-26 22:23:00,82.0,78.1,29.92,SE,136,10.4,10.4,88,0.00,CLR,,0.00,WeatherDisplay:10.37,2013-07-27 03:23:00,
2013-07-26 22:28:00,81.9,78.0,29.92,SSE,168,6.9,6.9,88,0.00,CLR,,0.00,WeatherDisplay:10.37,2013-07-27 03:28:00,
2013-07-26 22:33:00,81.8,77.9,29.92,ESE,115,11.5,11.5,88,0.00,CLR,,0.00,WeatherDisplay:10.37,2013-07-27 03:33:00,
2013-07-26 22:38:00,81.7,77.8,29.93,South,188,12.7,12.7,88,0.00,CLR,,0.00,WeatherDisplay:10.37,2013-07-27 03:38:00,
2013-07-26 22:44:00,81.7,77.8,29.93,South,180,11.5,11.5,88,0.00,CLR,,0.00,WeatherDisplay:10.37,2013-07-27 03:44:00,
2013-07-26 22:49:00,81.7,78.1,29.93,ESE,108,8.1,8.1,89,0.00,CLR,,0.00,WeatherDisplay:10.37,2013-07-27 03:49:00,
2013-07-26 22:54:00,81.6,77.7,29.93,South,182,16.1,16.1,88,0.00,CLR,,0.00,WeatherDisplay:10.37,2013-07-27 03:54:00,
2013-07-26 22:59:00,81.7,77.8,29.93,SSE,151,13.8,13.8,88,0.00,CLR,,0.00,WeatherDisplay:10.37,2013-07-27 03:59:00,
2013-07-26 23:01:00,81.8,77.5,29.93,South,171,18.4,18.4,87,0.00,CLR,,0.00,WeatherDisplay:10.37,2013-07-27 04:01:00,
2013-07-26 23:07:00,81.8,77.5,29.93,SSE,154,11.5,11.5,87,0.00,CLR,,0.00,WeatherDisplay:10.37,2013-07-27 04:07:00,
2013-07-26 23:12:00,81.8,77.9,29.94,SSE,155,9.2,9.2,88,0.00,CLR,,0.00,WeatherDisplay:10.37,2013-07-27 04:12:00,
2013-07-26 23:17:00,81.8,77.9,29.94,South,169,6.9,6.9,88,0.00,CLR,,0.00,WeatherDisplay:10.37,2013-07-27 04:17:00,
2013-07-26 23:22:00,81.7,78.1,29.94,SE,131,13.8,13.8,89,0.00,CLR,,0.00,WeatherDisplay:10.37,2013-07-27 04:22:00,
2013-07-26 23:27:00,81.7,78.1,29.94,SSE,149,6.9,6.9,89,0.00,CLR,,0.00,WeatherDisplay:10.37,2013-07-27 04:27:00,
2013-07-26 23:32:00,81.7,78.1,29.94,SSE,161,12.7,12.7,89,0.00,CLR,,0.00,WeatherDisplay:10.37,2013-07-27 04:32:00,
2013-07-26 23:37:00,81.7,78.1,29.94,SSE,148,11.5,11.5,89,0.00,CLR,,0.00,WeatherDisplay:10.37,2013-07-27 04:37:00,
2013-07-26 23:42:00,81.6,78.4,29.94,SSE,157,6.9,6.9,90,0.00,CLR,,0.00,WeatherDisplay:10.37,2013-07-27 04:42:00,
2013-07-26 23:47:00,81.5,78.3,29.93,SE,127,12.7,12.7,90,0.00,CLR,,0.00,WeatherDisplay:10.37,2013-07-27 04:47:00,
2013-07-26 23:52:00,81.6,78.0,29.93,SSE,148,6.9,6.9,89,0.00,CLR,,0.00,WeatherDisplay:10.37,2013-07-27 04:52:00,
2013-07-26 23:57:00,81.5,77.9,29.93,South,172,8.1,8.1,89,0.00,CLR,,0.00,WeatherDisplay:10.37,2013-07-27 04:57:00,